Current weather by "City, St" or "zip code"  
 
Advertise Here

Current Conditions: Ord, Evelyn Sharp Field Airport, NE

Light Freezing Rain Fog/Mist and Breezy


32.0 F

Last Updated on Feb 28 2021, 6:53 am CST
Humidity: 85%
Wind Speed: NW 21.9 G 31.1 mph
Barometer 29.93 in
Dewpoint: 28.0 F
Visibility: 6.00 mi
Precip: Trace
Heat Index: NA
Wind Chill: 19 F
Current conditions at:

Ord, Evelyn Sharp Field Airport, NE (KODX)

Lat: 41.62417 Lon: 98.9525

Local Radar Image active severe weather and emergency alerts image image weather storm and storm spotter reports image weather observation monitoring service image
Local
Radar
Active
Alerts
Storm Reports Obs
Monitoring

Sign-up For Email & Text Message Weather Alert Notification Services


Advertise Here

Observation History for Ord, Evelyn Sharp Field Airport, NE


Time Wind
(mph)
Vis
(mi)
Weather Precip (in) Temperature (F) Relative
Humidity
Wind
Chill
(F)
Heat
Index
(F)
Pressure
Air Dwpt altimeter
(in)
sea level
(mb)
Rmks
6:53 am CST NW 21.9 G 31.1 6.00 Light Freezing Rain Fog/Mist and Breezy Trace 32.0 28.0 85% 19 NA 29.93 1015.3
5:53 am CST NW 12.7 8.00 Overcast -- 34.0 30.0 85% 25 NA 29.89 1013.6
4:53 am CST NW 12.7 10.00 Overcast -- 34.0 30.0 85% 25 NA 29.86 1012.6
3:53 am CST NW 13.8 10.00 Overcast -- 35.0 30.0 82% 26 NA 29.83 1011.6
2:53 am CST NW 12.7 10.00 Overcast -- 35.0 30.9 85% 26 NA 29.83 1011.4
1:53 am CST NW 11.5 10.00 Overcast -- 35.0 30.9 85% 27 NA 29.84 1011.5
12:53 am CST NW 8.1 10.00 Overcast -- 34.0 30.9 89% 27 NA 29.82 1011.1
11:53 pm CST NW 11.5 10.00 Overcast -- 34.0 30.0 85% 26 NA 29.81 1010.7
10:53 pm CST NW 10.4 10.00 A Few Clouds -- 32.0 28.9 88% 24 NA 29.80 1010.5
9:53 pm CST NW 9.2 10.00 A Few Clouds -- 33.0 28.9 85% 25 NA 29.78 1010.3
8:53 pm CST N 13.8 10.00 Overcast -- 37.0 32.0 82% 28 NA 29.75 1009.3
7:53 pm CST NE 3.5 7.00 Partly Cloudy -- 33.0 30.9 92% NA NA 29.72 1008.8
6:53 pm CST N 0.0 9.00 Overcast -- 37.0 34.0 89% NA NA 29.69 1007.8
5:53 pm CST SE 3.5 9.00 Overcast -- 41.0 36.0 82% NA NA 29.67 1006.7
4:53 pm CST SE 3.5 10.00 Overcast -- 41.0 36.0 82% NA NA 29.65 1006.0
3:53 pm CST S 12.7 G 25.3 10.00 Overcast -- 42.0 36.0 79% 35 NA 29.65 1006.0
2:53 pm CST SE 21.9 G 39.1 10.00 Mostly Cloudy and Breezy -- 47.0 32.0 56% 39 NA 29.62 1004.4
1:53 pm CST E 15.0 G 27.6 10.00 Overcast -- 51.0 26.1 38% 46 NA 29.62 1004.2
12:53 pm CST E 12.7 G 24.2 10.00 Overcast -- 50.0 23.0 35% 45 NA 29.68 1006.2
11:53 am CST E 16.1 G 23.0 10.00 Fair -- 51.0 21.9 32% 46 NA 29.73 1007.8
10:53 am CST E 9.2 10.00 Fair -- 47.0 26.1 44% 43 NA 29.77 1009.3
9:53 am CST N 0.0 10.00 Fair -- 36.0 26.1 67% NA NA 29.80 1010.7
8:53 am CST N 0.0 10.00 Partly Cloudy -- 30.0 24.1 79% NA NA 29.82 1011.6
7:53 am CST N 0.0 10.00 Overcast -- 25.0 21.0 85% NA NA 29.82 1011.7

Regional Weather Observation


Broken Bow, Broken Bow Municipal Airport, NE (KBBW)

Overcast and Breezy
30.0 F

Albion Municipal Airport, NE (KBVN)

Overcast and Breezy
31.0 F

ONeill / Baker Field, NE (KONL)

Light Snow and Breezy
25.0 F

Thedford, Thomas County Airport, NE (KTIF)

Overcast
22.0 F

Ainsworth Regional Airport, NE (KANW)

Fog/Mist and Windy
20.0 F

Grand Island, Central Nebraska Regional Airport, NE (KGRI)

Overcast
34.0 F
Advertise Here

Advertise Here